DELTA 1 DEB

Satellite information

Favourite Embed

Satellite Type and Status

DEBRISIN ORBIT

Key statistics

Satellite DELTA 1 DEB at a glance.

Uptime

22081

Days in orbit

Revolutions

≈ 12.0

Per day

Orbit

MEO

Medium Earth Orbit

Inclination

96.4

Latest

Satellite identification and parameters

Extended collection of information and parameters for DELTA 1 DEB.

Object identification

Identified? True

Debris? True

Object name: DELTA 1 DEB

International designator: 1965-004D

Object number (NORAD): 1313

Object ID (CCSDS): 1313

Country: UNITED STATES OF AMERICA (US)

Current information (Y/N): Y

RCS size: SMALL

Orbital parameters

Period: 119.92 minutes

Inclination: 96.4364 deg

SMA: 8055.425 km

Apoapsis: 2622.596 km

Periapsis: 731.983 km

RAAN: 296.1063 deg

Eccentricy: 0.1173503

Argument of periapsis: 339.6467 deg

Mean anomaly: 16.1282 deg

Mean motion: 12.00798337 rev/day

Mean motion (dot): -0.00000433 rev/day2

B* drag term: -0.00062141 1/REarth

Two-line elements (TLE)

Creation date: July 6, 2025, 6:05 p.m.

Reference frame: TEME

Reference center: EARTH

Epoch: July 6, 2025, 5:46 a.m. UTC

TLE line 0: 0 DELTA 1 DEB

TLE line 1: 1 01313U 65004D 25187.24075668 -.00000433 00000-0 -62141-3 0 9993

TLE line 2: 2 01313 96.4364 296.1063 1173503 339.6467 16.1282 12.00798337644922

Live tracking on map

Real-time ground track for satellite DELTA 1 DEB.

In-orbit conjunctions

A list of the most updated potential collisions computed for object DELTA 1 DEB.

Target Orbit TCA Probability of collision Miss distance Type
CZ-6A DEB LEO 2024-10-19 11:37:11 0.0002895409 235.0 (m) DEBRIS

Associated space launch

The ESSA series was the second generation of US meterological satellites after the TIROS (Television & Infra-Red Observation Satellite) series. They were also called OT (Operational TIROS), TOS (TIROS Operational Satellite).

DELTA 1 DEB was lifted into orbit during the mission ‘Thor Delta C | Tiros 9’, on board a Thor Delta C space rocket.

The launch took place on Jan. 22, 1965, 7:52 a.m. from Space Launch Complex 17A.

For more information about the launch, click the button.

Launch to space Thor Delta C | Tiros 9
Thor Delta C | Tiros 9

Agency: N/A

Status: Launch Failure

Launch date: Jan. 22, 1965, 7:52 a.m. UTC

Rocket: Thor Delta C

Launch pad: Space Launch Complex 17A

Location: Cape Canaveral SFS, FL, USA

...

Latest news about this satellite

There are no fresh news available about this satellite. Check back as we update our databases every day.


Newsletter sign-up

Weekly statistics, charts and insights to help you stay on top of the space industry.